Location: Hartford
(41.7640°N, 72.6860°W)
Time: 18:03:10
(UTC-05:00)

ISS - All Passes

Search period start: 11 December 2017 00:00
Search period end: 21 December 2017 00:00
Orbit: 403 x 407 km, 51.6° (Epoch: 12 December)

Date Brightness Start Highest point End Pass type
(mag) Time Alt. Az. Time Alt. Az. Time Alt. Az.
11 Dec - 11:57:32 10° S 12:00:13 23° SE 12:02:55 10° E daylight
11 Dec - 13:33:23 10° WSW 13:36:32 43° NNW 13:39:44 10° NE daylight
11 Dec - 15:11:29 10° NW 15:13:40 16° N 15:15:50 10° NNE daylight
11 Dec - 16:48:50 10° NNW 16:51:06 17° N 16:53:22 10° NE visible
11 Dec - 18:24:56 10° NW 18:28:10 51° NNE 18:31:22 10° ESE visible
11 Dec - 20:01:58 10° W 20:04:24 19° SW 20:06:49 10° S night (unlit)
12 Dec - 11:06:43 10° SSE 11:08:14 13° SE 11:09:44 10° ESE daylight
12 Dec - 12:41:00 10° WSW 12:44:17 76° NW 12:47:35 10° NE daylight
12 Dec - 14:18:43 10° WNW 14:21:12 19° NNW 14:23:41 10° NNE daylight
12 Dec - 15:56:36 10° NNW 15:58:37 15° N 16:00:39 10° NE daylight
12 Dec - 17:32:51 10° NW 17:35:51 32° NNE 17:38:51 10° E visible
12 Dec - 19:09:19 10° WNW 19:12:21 36° SW 19:15:24 10° SSE visible
13 Dec - 11:48:53 10° SW 11:52:06 57° SE 11:55:21 10° ENE daylight
13 Dec - 13:25:59 10° W 13:28:46 25° NNW 13:31:36 10° NE daylight
13 Dec - 15:04:09 10° NW 15:06:06 15° N 15:08:04 10° NE daylight
13 Dec - 16:40:46 10° NW 16:43:28 23° NNE 16:46:10 10° ENE daylight
13 Dec - 18:16:56 10° WNW 18:20:13 71° SW 18:23:29 10° SE visible
14 Dec - 10:57:05 10° SSW 10:59:59 29° SE 11:02:54 10° ENE daylight
14 Dec - 12:33:19 10° W 12:36:24 36° NNW 12:39:30 10° NE daylight
14 Dec - 14:11:30 10° NW 14:13:35 16° N 14:15:41 10° NNE daylight
14 Dec - 15:48:39 10° NNW 15:51:01 18° NNE 15:53:23 10° ENE daylight
14 Dec - 17:24:43 10° NW 17:28:00 62° NNE 17:31:14 10° ESE visible
14 Dec - 19:02:06 10° W 19:04:09 15° SW 19:06:10 10° S visible
15 Dec - 10:05:51 10° S 10:07:56 16° SE 10:10:01 10° E daylight
15 Dec - 11:40:50 10° WSW 11:44:05 61° NNW 11:47:22 10° NE daylight
15 Dec - 13:18:43 10° WNW 13:21:05 18° NNW 13:23:27 10° NNE daylight
15 Dec - 14:56:25 10° NNW 14:58:31 16° N 15:00:36 10° NE daylight
15 Dec - 16:32:34 10° NW 16:35:41 37° NNE 16:38:46 10° E daylight
15 Dec - 18:09:12 10° WNW 18:12:06 28° SW 18:14:58 10° SSE visible
16 Dec - 10:48:34 10° SW 10:51:50 72° SE 10:55:07 10° ENE daylight
16 Dec - 12:25:54 10° WNW 12:28:36 23° NNW 12:31:17 10° NE daylight
16 Dec - 14:04:00 10° NW 14:05:58 15° N 14:07:55 10° NE daylight
16 Dec - 15:40:28 10° NW 15:43:17 25° NNE 15:46:06 10° E daylight
16 Dec - 17:16:43 10° WNW 17:19:57 55° SW 17:23:09 10° SE visible
17 Dec - 09:56:36 10° SSW 09:59:39 37° SE 10:02:43 10° ENE daylight
17 Dec - 11:33:10 10° W 11:36:10 31° NNW 11:39:09 10° NE daylight
17 Dec - 13:11:23 10° NW 13:13:24 15° N 13:15:25 10° NNE daylight
17 Dec - 14:48:19 10° NNW 14:50:48 19° NNE 14:53:17 10° ENE daylight
17 Dec - 16:24:25 10° NW 16:27:42 77° NE 16:30:58 10° ESE daylight
17 Dec - 18:02:20 10° WSW 18:03:45 12° SW 18:05:11 10° SSW visible
18 Dec - 09:05:05 10° S 09:07:32 20° SE 09:10:00 10° E daylight
18 Dec - 10:40:34 10° WSW 10:43:47 50° NNW 10:47:00 10° NE daylight
18 Dec - 12:18:35 10° NW 12:20:50 17° N 12:23:05 10° NNE daylight
18 Dec - 13:56:05 10° NNW 13:58:16 16° N 14:00:27 10° NE daylight
18 Dec - 15:32:13 10° NW 15:35:23 44° NNE 15:38:32 10° ESE daylight
18 Dec - 17:09:02 10° W 17:11:41 23° SW 17:14:21 10° S visible
19 Dec - 08:14:54 10° SE 08:15:29 10° SE 08:16:04 10° ESE daylight
19 Dec - 09:48:10 10° SW 09:51:28 90° NNW 09:54:46 10° NE daylight
19 Dec - 11:25:44 10° WNW 11:28:18 21° NNW 11:30:53 10° NE daylight
19 Dec - 13:03:43 10° NNW 13:05:41 15° N 13:07:41 10° NE daylight
19 Dec - 14:40:03 10° NW 14:42:58 29° NNE 14:45:53 10° E daylight
19 Dec - 16:16:23 10° WNW 16:19:32 43° SW 16:22:40 10° SSE daylight
20 Dec - 08:56:03 10° SW 08:59:13 46° SE 09:02:24 10° ENE daylight
20 Dec - 10:32:55 10° W 10:35:49 28° NNW 10:38:43 10° NE daylight
20 Dec - 12:11:07 10° NW 12:13:05 15° N 12:15:04 10° NE daylight
20 Dec - 13:47:52 10° NW 13:50:28 21° NNE 13:53:05 10° ENE daylight
20 Dec - 15:24:00 10° NW 15:27:18 86° SW 15:30:34 10° SE daylight
